{"data":{"norad_id":53744,"intl_designator":"2022-107AW","name":"STARLINK-4670","alt_names":[],"object_type":"PAYLOAD","status":"ACTIVE","operator":null,"country":"US","launch_date":"2022-09-05","launch_site_code":"AFETR","launch_vehicle":null,"mission":null,"orbit_class":"UNKNOWN","rcs_meters":null,"size_class":null,"mass_kg":null,"dimensions":null,"purposes":["comms"],"wikipedia_slug":null,"has_3d_model":false,"image_url":null,"decayed_at":null,"tle_current":{"epoch":"2026-09-20T22:56:57.757056Z","epoch_age_seconds":44654,"freshness":"FRESH","line1":"1 53744U 22107AW  26263.95622404  .00000470  00000+0  26916-4 0  9994","line2":"2 53744  53.1611  97.6545 0001235  87.7577 272.3566 15.31702706224203","mean_motion":15.31702706,"eccentricity":0.0001235,"inclination_deg":53.1611,"raan_deg":97.6545,"arg_perigee_deg":87.7577,"mean_anomaly_deg":272.3566,"bstar":2.6916e-5,"rev_number":22420,"period_min":94.013021871622,"perigee_km":469.88609347963,"apogee_km":471.57776410504,"semimajor_km":6848.8689287923,"source":"CELESTRAK","updated_at":"2026-09-21T09:00:32.990083Z"}}}